Snowfall_Accumulation
0.0 0.0 0.0 0.0 0.0 0.0 0.0 0.0 0.2 0.0 0.0 0.0 0.0 0.0 0.0 0.0 0.0 0.0 0.0 0.0 0.0 0.0 0.0 0.0 0.0 0.0 0.0 0.0 0.0 0.0 0.0 0.0 0.0 0.0 0.0 0.0 0.0 0.0 0.0 0.0 0.0 0.0 0.0 0.0
0.0 0.0 0.0 0.0 0.0 0.0 0.0 0.0 0.0 0.0 0.0 0.0 0.0 0.0 0.0 0.0 0.0 0.0 0.0 0.0 0.0 0.0 0.0 0.0 0.0 0.0 0.0 0.0 0.0 0.0 0.0 0.0 0.0 0.0 0.0 0.0 0.0 0.0 0.0 0.0 0.0 0.0 0.0 0.0
0.7 0.0 0.0 1.9 0.0 0.0 0.0 0.0 0.0 0.0 0.0 0.0 0.0 0.0 0.0 0.0 0.0 0.0 0.0 0.0 0.0 0.0 0.0 0.0 0.0 0.0 0.0 0.0 0.0 0.0 0.0 0.0 0.0 0.0 0.0 0.0 0.0 0.0 0.0 0.0 0.0 0.0 0.0 0.0
4.0 0.2 17.6 0.1 0.0 0.0 0.0 0.0 0.0 0.0 0.0 0.0 0.0 0.0 0.0 0.0 0.0 0.0 0.0 0.0 0.0 0.0 0.0 0.0 0.0 0.0 0.0 0.0 0.0 0.0 0.0 0.0 0.0 0.0 0.0 0.0 0.0 0.0 0.0 0.0 0.0 0.0 0.0 0.0
11.9 2.0 0.1 0.0 0.0 0.0 0.0 0.0 0.0 0.0 0.0 0.0 0.0 0.0 0.0 0.0 0.0 0.0 0.0 0.0 0.0 0.0 0.0 0.0 0.0 0.0 0.0 0.0 0.0 0.0 0.0 0.0 0.0 0.0 0.0 0.0 0.0 0.0 0.0 0.0 0.0 0.0 0.0 0.0
9.3 9.8 8.0 0.0 0.0 0.0 0.0 0.3 0.0 0.0 0.0 0.0 0.0 0.0 0.0 0.0 0.0 0.0 0.0 0.0 0.0 0.0 0.0 0.0 0.0 0.0 0.0 0.0 0.0 0.0 0.0 0.0 0.0 0.0 0.0 0.0 0.0 0.0 0.0 0.0 0.0 0.1 0.0 0.0
8.3 9.5 0.8 0.0 0.0 0.0 0.3 0.1 0.0 0.0 0.0 0.0 0.0 0.0 0.0 0.0 0.0 0.0 0.0 0.0 0.0 0.0 0.0 0.0 0.0 0.0 0.0 0.0 0.0 0.0 0.0 0.0 0.0 0.0 0.0 0.0 0.0 0.0 0.0 0.0 0.0 0.0 0.0 0.0
5.7 9.3 9.3 0.0 0.0 0.0 0.0 0.0 0.0 0.0 0.0 0.0 0.0 0.0 0.0 0.0 0.0 0.0 0.0 0.0 0.0 0.0 0.0 0.0 0.0 0.0 0.0 0.0 0.0 0.0 0.0 0.0 0.0 0.0 0.0 0.0 0.0 0.0 0.0 0.0 0.0 0.0 0.0 0.2
0.2 0.3 0.0 0.0 0.0 0.0 0.0 0.0 0.0 0.0 0.0 0.0 0.0 0.0 0.0 0.0 0.0 0.0 0.0 0.0 0.0 0.0 0.0 0.0 0.0 0.0 0.0 0.0 0.0 0.0 0.0 0.0 0.0 0.0 0.0 0.0 0.0 0.0 0.2 0.0 0.2 0.1 0.4 0.5
0.2 0.0 0.0 0.0 0.0 0.0 0.0 0.0 0.0 0.0 0.0 0.0 0.0 0.0 0.0 0.0 0.0 0.0 0.0 0.0 0.0 0.0 0.0 0.0 0.0 0.0 0.0 0.0 0.0 0.0 0.0 0.0 0.0 0.0 0.0 0.0 0.2 0.2 0.4 0.5 0.6 0.7 1.3 2.0
0.0 0.0 0.0 0.0 0.0 0.0 0.0 0.0 0.0 0.0 0.0 0.0 0.0 0.0 0.0 0.0 0.0 0.0 0.0 0.0 0.0 0.0 0.0 0.0 0.0 0.0 0.0 0.0 0.0 0.0 0.0 0.0 0.0 0.3 0.1 0.2 0.2 0.5 0.5 0.2 0.5 0.7 0.7 0.8
0.2 0.0 0.0 0.0 0.0 0.0 0.0 0.0 0.0 0.0 0.0 0.0 0.0 0.0 0.0 0.0 0.0 0.0 0.0 0.0 0.0 0.0 0.0 0.0 0.0 0.0 0.0 0.0 0.0 0.0 0.0 0.3 0.5 0.6 1.2 1.2 0.9 1.5 nan nan nan nan nan 1.3
0.0 0.0 0.0 0.0 0.0 0.0 0.0 0.0 0.0 0.0 0.0 0.0 0.0 0.0 0.0 0.0 0.0 nan 0.0 0.0 0.0 0.0 0.0 0.0 0.0 0.0 0.0 0.0 0.0 0.0 0.0 0.0 0.5 0.6 1.3 2.1 2.5 2.1 4.8 4.0 nan nan nan nan
0.0 0.0 0.0 0.0 0.0 0.0 0.0 0.0 0.0 0.0 0.0 0.0 0.0 0.0 0.0 0.0 0.0 0.2 0.2 0.0 0.0 0.0 0.0 0.1 0.1 0.2 0.1 0.0 0.1 0.1 0.1 0.0 0.7 1.0 1.5 2.4 2.8 3.5 3.6 4.5 6.7 7.5 nan nan
0.0 0.0 0.0 0.0 0.0 0.0 0.0 0.0 0.0 0.0 0.0 0.0 0.0 0.0 0.0 0.0 0.0 0.1 0.7 1.2 0.7 1.1 1.3 0.9 1.0 2.7 1.5 1.6 1.3 0.8 0.5 1.3 1.4 2.1 2.4 3.2 4.1 4.9 4.4 4.8 6.4 6.8 7.1 5.7
0.0 0.0 0.0 0.0 0.0 0.0 0.0 0.0 0.0 0.0 0.0 0.0 0.0 0.0 0.0 0.1 0.2 0.4 0.5 0.7 1.1 2.3 4.2 6.1 4.5 3.5 1.9 1.1 0.5 0.5 1.6 1.2 2.2 3.2 3.9 4.6 4.1 4.5 5.8 6.2 6.3 6.4 6.0 6.5
0.0 0.0 0.0 0.0 0.0 0.0 0.0 0.0 0.0 0.0 0.0 0.0 0.0 0.2 0.1 0.5 0.6 2.9 3.4 2.2 3.2 4.6 5.1 3.0 4.1 1.4 0.9 0.4 0.6 1.7 2.0 2.5 1.4 2.9 3.3 3.6 4.1 4.7 4.8 4.8 5.9 5.6 7.0 7.0
0.0 0.0 0.0 0.0 0.0 0.1 0.0 0.0 0.0 0.1 0.2 0.4 0.4 1.9 3.6 4.6 4.3 9.6 11.4 8.3 6.5 6.8 4.4 4.4 2.6 1.6 1.2 0.8 0.9 1.7 2.0 2.5 2.4 3.3 3.0 4.0 4.1 3.5 4.4 4.4 4.5 5.2 6.1 5.8
0.0 0.0 0.0 0.0 0.1 0.1 0.2 0.4 0.4 0.4 1.5 1.8 4.1 8.6 9.5 10.6 8.5 7.6 5.6 10.6 11.3 4.4 7.6 4.2 1.6 0.9 1.5 1.5 0.5 1.2 1.7 2.1 2.1 2.3 2.2 4.9 3.8 3.3 4.2 4.3 4.4 5.1 4.0 5.0
0.0 0.0 0.0 0.1 0.2 0.6 1.0 1.8 1.6 2.7 3.8 4.3 9.1 9.5 7.6 11.9 9.6 11.3 5.9 6.0 6.9 8.2 4.1 2.7 1.3 2.1 2.8 1.8 0.8 1.3 1.5 2.1 2.0 2.6 3.4 2.5 4.2 7.0 5.3 5.8 3.9 5.3 8.5 7.3
0.0 0.2 0.4 0.9 2.8 3.2 4.7 5.2 4.2 5.0 7.4 7.4 7.9 11.3 13.2 12.1 10.8 10.3 4.8 3.2 7.0 3.7 2.2 0.8 0.7 0.8 0.6 0.6 0.7 1.1 1.7 3.3 4.1 3.3 3.6 6.7 8.8 6.2 7.6 8.3 8.0 9.3 11.7 9.2
0.6 1.4 3.6 3.6 2.7 3.8 4.9 4.7 4.1 7.1 7.4 10.4 14.6 15.3 12.3 8.2 8.1 5.9 6.7 3.8 4.2 0.6 0.7 0.6 0.5 1.2 1.4 3.1 0.6 2.4 1.4 1.6 2.5 3.2 4.2 6.6 7.6 11.6 12.3 10.1 11.3 12.3 12.2 13.3
2.7 2.8 4.0 5.7 5.3 5.0 3.0 3.9 7.7 6.6 10.0 8.2 9.3 6.0 3.1 2.4 2.0 2.0 2.4 0.3 0.4 1.9 0.5 0.7 3.2 3.4 4.0 3.9 3.3 4.5 4.8 5.0 5.0 4.7 5.2 9.0 8.3 14.7 7.9 8.3 9.3 10.0 14.6 10.8
3.4 2.4 4.1 3.3 2.2 1.4 4.0 2.2 0.7 0.9 5.1 3.1 3.7 5.2 0.7 2.5 3.1 0.7 0.5 4.2 4.5 8.3 5.8 2.7 5.8 4.9 5.0 5.7 5.6 6.6 5.9 6.4 7.6 9.3 3.9 7.0 13.1 9.2 6.7 11.5 8.0 8.1 10.5 10.0
2.5 3.2 3.3 2.1 1.0 1.5 0.6 0.3 0.9 1.3 1.0 0.5 0.8 0.4 0.2 0.7 2.7 1.3 1.9 2.3 5.5 2.5 3.1 5.8 6.1 6.4 8.2 8.6 8.1 8.7 8.5 6.7 7.6 10.8 7.9 12.7 11.1 16.8 12.3 9.5 13.2 12.2 14.1 12.2
0.6 1.5 1.0 0.1 0.4 0.6 0.5 0.6 0.9 1.2 1.2 4.0 3.0 5.3 4.6 1.6 1.5 1.5 2.3 4.7 2.2 4.9 2.3 8.6 12.5 11.6 10.0 7.0 8.1 9.2 5.9 4.1 6.3 6.4 9.1 9.0 9.1 7.5 10.8 9.7 12.7 15.4 19.1 21.7
0.5 0.1 0.5 0.5 0.5 0.6 0.7 0.8 1.6 2.6 2.3 4.1 4.9 6.6 2.6 4.1 5.8 4.4 6.6 7.3 6.7 9.1 10.2 11.1 9.4 7.6 4.9 9.2 8.1 7.1 6.8 6.6 8.2 5.3 11.4 14.5 14.1 18.5 17.6 17.3 18.5 19.4 17.8 18.0
Water_Equivalent
0.00 0.00 0.00 0.00 0.00 0.00 0.00 0.00 0.05 0.00 0.00 0.00 0.00 0.00 0.00 0.00 0.00 0.00 0.00 0.00 0.00 0.00 0.00 0.00 0.00 0.00 0.00 0.00 0.00 0.00 0.00 0.00 0.00 0.00 0.00 0.00 0.00 0.00 0.00 0.00 0.00 0.00 0.00 0.00
0.00 0.00 0.00 0.00 0.00 0.00 0.00 0.00 0.00 0.00 0.00 0.00 0.00 0.00 0.00 0.00 0.00 0.00 0.00 0.00 0.00 0.00 0.00 0.00 0.00 0.00 0.00 0.00 0.00 0.00 0.00 0.00 0.00 0.00 0.00 0.00 0.00 0.00 0.00 0.00 0.00 0.00 0.00 0.00
0.14 0.00 0.00 0.34 0.00 0.00 0.00 0.00 0.00 0.00 0.00 0.00 0.00 0.00 0.00 0.00 0.00 0.00 0.00 0.00 0.00 0.00 0.00 0.00 0.00 0.00 0.00 0.00 0.00 0.00 0.00 0.00 0.00 0.00 0.00 0.00 0.00 0.00 0.00 0.00 0.00 0.00 0.00 0.00
0.87 0.04 2.48 0.03 0.00 0.00 0.00 0.00 0.00 0.00 0.00 0.00 0.00 0.00 0.00 0.00 0.00 0.00 0.00 0.00 0.00 0.00 0.00 0.00 0.00 0.00 0.00 0.00 0.00 0.00 0.00 0.00 0.00 0.00 0.00 0.00 0.00 0.00 0.00 0.00 0.00 0.00 0.00 0.00
2.29 0.43 0.01 0.00 0.00 0.00 0.00 0.00 0.00 0.00 0.00 0.00 0.00 0.00 0.00 0.00 0.00 0.00 0.00 0.00 0.00 0.00 0.00 0.00 0.00 0.00 0.00 0.00 0.00 0.00 0.00 0.00 0.00 0.00 0.00 0.00 0.00 0.00 0.00 0.00 0.00 0.00 0.00 0.00
2.03 1.69 1.28 0.00 0.00 0.00 0.00 0.07 0.00 0.00 0.00 0.00 0.00 0.00 0.00 0.00 0.00 0.00 0.00 0.00 0.00 0.00 0.00 0.00 0.00 0.00 0.00 0.00 0.00 0.00 0.00 0.00 0.00 0.00 0.00 0.00 0.00 0.00 0.00 0.00 0.00 0.02 0.00 0.00
1.80 1.75 0.18 0.00 0.00 0.00 0.06 0.01 0.00 0.00 0.00 0.00 0.00 0.00 0.00 0.00 0.00 0.00 0.00 0.00 0.00 0.00 0.00 0.00 0.00 0.00 0.00 0.00 0.00 0.00 0.00 0.00 0.00 0.00 0.00 0.00 0.00 0.00 0.00 0.00 0.00 0.00 0.00 0.00
1.22 1.75 1.45 0.00 0.00 0.00 0.01 0.00 0.00 0.00 0.00 0.00 0.00 0.00 0.00 0.00 0.00 0.00 0.00 0.00 0.00 0.00 0.00 0.00 0.00 0.00 0.00 0.00 0.00 0.00 0.00 0.00 0.00 0.00 0.00 0.00 0.00 0.00 0.00 0.00 0.00 0.00 0.00 0.06
0.04 0.09 0.00 0.00 0.00 0.00 0.00 0.00 0.00 0.00 0.00 0.00 0.00 0.00 0.00 0.00 0.00 0.00 0.00 0.00 0.00 0.00 0.00 0.00 0.00 0.00 0.00 0.00 0.00 0.00 0.00 0.00 0.00 0.00 0.00 0.00 0.00 0.00 0.08 0.00 0.08 0.03 0.17 0.19
0.04 0.00 0.00 0.00 0.00 0.00 0.00 0.00 0.00 0.00 0.00 0.00 0.00 0.00 0.00 0.00 0.00 0.00 0.00 0.00 0.00 0.00 0.00 0.00 0.00 0.00 0.00 0.00 0.00 0.00 0.00 0.01 0.00 0.00 0.00 0.00 0.09 0.10 0.15 0.19 0.24 0.26 0.44 0.66
0.00 0.00 0.00 0.00 0.00 0.00 0.00 0.00 0.00 0.00 0.00 0.00 0.00 0.00 0.00 0.00 0.00 0.00 0.00 0.00 0.00 0.00 0.00 0.00 0.00 0.00 0.00 0.00 0.00 0.00 0.00 0.01 0.01 0.12 0.04 0.06 0.09 0.20 0.19 0.07 0.19 0.27 0.28 0.30
0.07 0.00 0.00 0.00 0.00 0.00 0.00 0.00 0.00 0.00 0.00 0.00 0.00 0.00 0.00 0.00 0.00 0.00 0.00 0.00 0.00 0.00 0.00 0.00 0.00 0.00 0.00 0.00 0.00 0.00 0.00 0.12 0.18 0.24 0.48 0.47 0.33 0.56 nan nan nan nan nan 0.53
0.00 0.00 0.00 0.00 0.00 0.00 0.00 0.00 0.00 0.00 0.00 0.00 0.00 0.00 0.00 0.00 0.00 nan 0.00 0.00 0.00 0.00 0.00 0.00 0.00 0.00 0.00 0.00 0.00 0.00 0.01 0.01 0.21 0.24 0.50 0.78 0.87 0.74 1.43 1.34 nan nan nan nan
0.00 0.00 0.00 0.00 0.00 0.00 0.00 0.00 0.00 0.00 0.00 0.00 0.00 0.00 0.00 0.00 0.01 0.07 0.08 0.00 0.00 0.00 0.01 0.02 0.04 0.07 0.03 0.02 0.02 0.03 0.03 0.00 0.27 0.35 0.52 0.80 0.96 1.23 1.23 1.43 1.92 2.03 nan nan
0.00 0.00 0.00 0.00 0.00 0.00 0.00 0.00 0.00 0.00 0.00 0.00 0.00 0.00 0.00 0.00 0.01 0.04 0.26 0.47 0.26 0.41 0.49 0.33 0.37 1.06 0.61 0.64 0.50 0.31 0.19 0.46 0.48 0.73 0.80 1.04 1.27 1.56 1.38 1.41 1.76 1.68 1.80 1.41
0.00 0.00 0.00 0.00 0.00 0.00 0.00 0.00 0.00 0.00 0.00 0.00 0.00 0.00 0.01 0.01 0.04 0.09 0.13 0.21 0.29 0.64 1.38 2.04 1.52 1.34 0.76 0.40 0.17 0.15 0.46 0.37 0.60 0.84 1.00 1.20 1.12 1.13 1.37 1.46 1.39 1.43 1.30 1.46
0.00 0.00 0.00 0.00 0.00 0.00 0.00 0.00 0.00 0.00 0.00 0.00 0.01 0.02 0.02 0.08 0.11 0.67 0.78 0.54 0.87 1.29 1.38 0.71 0.97 0.39 0.25 0.10 0.15 0.46 0.52 0.61 0.47 0.66 0.75 0.81 0.93 1.06 1.05 1.03 1.24 1.14 1.51 1.82
0.00 0.00 0.00 0.00 0.01 0.01 0.01 0.00 0.01 0.02 0.04 0.06 0.07 0.53 1.01 1.04 0.73 1.76 2.23 1.83 1.32 1.36 0.86 0.91 0.55 0.35 0.26 0.18 0.19 0.39 0.47 0.56 0.55 0.72 0.67 0.86 0.84 0.72 0.87 0.86 0.89 1.01 1.20 1.17
0.00 0.00 0.00 0.00 0.01 0.02 0.04 0.06 0.07 0.08 0.34 0.36 0.98 1.89 2.06 2.23 1.42 1.18 0.93 1.90 2.11 0.66 1.20 0.72 0.52 0.19 0.27 0.28 0.11 0.29 0.38 0.51 0.47 0.47 0.48 1.55 0.83 0.66 0.88 0.90 0.88 1.09 0.83 0.98
0.00 0.00 0.00 0.03 0.04 0.10 0.18 0.32 0.27 0.47 0.69 0.83 1.83 1.84 1.24 1.98 1.71 1.99 1.03 0.82 0.88 1.14 0.64 0.47 0.23 0.34 0.44 0.32 0.21 0.27 0.34 0.51 0.43 0.58 0.80 0.53 1.05 1.80 1.23 1.84 0.86 1.22 2.18 1.73
0.01 0.04 0.08 0.16 0.47 0.59 0.91 0.94 0.76 0.73 1.17 1.41 1.55 2.09 2.20 2.01 1.91 1.99 0.87 0.43 0.85 0.50 0.32 0.21 0.12 0.15 0.13 0.13 0.17 0.27 0.49 0.93 1.12 0.80 0.87 1.73 2.35 1.56 1.86 2.17 2.04 2.44 2.94 2.23
0.10 0.26 0.72 0.65 0.43 0.58 0.74 0.70 0.58 1.23 1.25 1.89 2.75 2.85 2.20 1.25 1.38 1.00 1.21 0.46 0.56 0.19 0.15 0.14 0.10 0.40 0.43 1.01 0.17 0.74 0.39 0.47 0.71 0.84 1.05 1.71 1.87 2.82 2.89 2.45 2.54 2.94 2.91 3.07
0.50 0.48 0.74 1.05 0.95 0.75 0.53 0.72 1.53 1.31 2.03 1.72 1.91 1.17 0.55 0.38 0.32 0.37 0.44 0.04 0.11 0.62 0.12 0.20 1.06 1.13 1.32 1.16 1.00 1.35 1.41 1.40 1.34 1.20 1.31 2.21 2.05 3.63 1.81 1.86 2.21 2.34 3.51 2.38
0.59 0.42 0.72 0.57 0.43 0.28 0.63 0.35 0.13 0.18 1.21 0.68 0.84 1.25 0.14 0.58 0.83 0.15 0.12 1.40 1.49 2.79 1.73 0.76 1.74 1.62 1.64 1.64 1.58 1.87 1.66 1.77 2.00 2.39 0.96 2.28 3.36 2.27 1.64 2.78 1.66 2.07 2.52 2.29
0.45 0.52 0.52 0.37 0.18 0.34 0.12 0.06 0.18 0.26 0.20 0.11 0.15 0.08 0.04 0.17 0.69 0.31 0.52 0.63 1.80 0.80 0.89 1.89 2.01 2.13 2.23 2.33 2.14 2.24 2.13 1.64 1.86 2.58 1.76 2.92 2.56 3.86 3.02 2.17 2.78 2.94 3.06 2.72
0.11 0.31 0.23 0.02 0.10 0.15 0.14 0.15 0.22 0.29 0.27 0.89 0.69 1.44 1.33 0.44 0.39 0.39 0.62 1.43 0.58 1.60 0.61 2.21 3.15 3.03 2.65 1.73 2.01 2.18 1.40 0.96 1.43 1.43 1.91 1.87 1.89 1.50 1.97 1.82 2.57 3.36 4.30 4.81
0.13 0.04 0.12 0.12 0.13 0.15 0.18 0.20 0.37 0.54 0.64 1.04 1.09 1.69 0.65 1.03 1.48 1.25 2.08 1.86 1.72 2.18 2.33 2.80 2.31 2.33 1.21 2.19 1.82 1.51 1.39 1.42 2.47 1.07 2.18 2.70 2.58 3.68 3.31 3.39 3.87 4.31 3.70 3.26
SL_Ratio
nan nan nan nan nan nan nan nan 3.9 0.0 nan nan nan nan nan nan nan nan nan nan nan nan nan nan nan nan nan nan nan nan nan nan nan nan nan nan nan nan nan nan nan nan nan nan
0.0 nan nan nan nan nan nan nan nan nan nan nan nan nan nan nan nan nan nan nan nan nan nan nan nan nan nan nan nan nan nan nan nan nan nan nan nan nan nan nan nan nan nan nan
5.3 nan 4.3 5.4 nan nan nan nan nan nan nan nan nan nan nan nan nan nan nan nan nan nan nan nan nan nan nan nan nan nan nan nan nan nan nan nan nan nan nan nan nan nan nan nan
4.6 4.0 7.1 4.6 nan nan nan nan nan nan nan nan nan nan nan nan nan nan nan nan nan nan nan nan nan nan nan nan nan nan nan nan nan nan nan nan nan nan nan nan nan nan nan nan
5.2 4.7 4.9 nan nan nan nan nan nan nan nan nan nan nan nan nan nan nan nan nan nan nan nan nan nan nan nan nan nan nan nan nan nan nan nan nan nan nan nan nan nan nan nan nan
4.6 5.8 6.2 nan nan nan nan 3.9 nan nan nan nan nan nan nan nan nan nan nan nan nan nan nan nan nan nan nan nan nan nan nan nan nan nan nan nan nan nan nan nan nan 2.5 nan nan
4.6 5.4 4.3 nan nan nan 4.5 4.9 nan nan nan nan nan nan nan nan nan nan nan nan nan nan nan nan nan nan nan nan nan nan nan nan nan nan nan nan nan nan nan nan nan nan nan nan
4.7 5.3 6.4 nan nan nan 2.7 nan nan nan nan nan nan nan nan nan nan nan nan nan nan nan nan nan nan nan nan nan nan nan nan nan nan nan nan nan nan nan nan nan nan nan 2.7 2.7
4.3 3.8 nan nan nan nan nan nan nan nan nan nan nan nan nan nan nan nan nan nan nan nan nan nan nan nan nan nan nan nan nan nan nan nan nan nan nan nan 2.5 nan 2.6 2.8 2.6 2.7
4.4 nan nan nan nan nan nan nan nan nan nan nan nan nan nan nan nan nan nan nan nan nan nan nan nan nan nan nan nan nan 3.3 2.4 0.0 2.0 nan nan 2.5 2.5 2.5 2.5 2.6 2.7 2.9 3.0
2.0 nan nan nan nan nan nan nan nan nan nan nan nan nan nan nan nan nan nan nan nan nan nan nan nan nan nan nan nan nan nan 2.4 2.6 2.5 2.6 2.6 2.5 2.5 2.5 2.6 2.5 2.6 2.6 2.7
2.9 nan nan nan nan nan nan nan nan nan nan nan nan nan nan nan nan nan nan nan nan nan nan nan nan nan nan nan nan nan 5.0 2.7 2.6 2.6 2.5 2.5 2.7 2.8 nan nan nan nan nan 2.5
nan nan nan nan nan nan nan nan nan nan nan nan nan nan nan nan nan nan nan nan nan nan nan nan nan nan nan nan nan 0.0 2.9 3.0 2.6 2.6 2.6 2.7 2.8 2.9 3.4 3.0 nan nan nan nan
nan nan nan nan nan nan nan nan nan nan nan nan nan nan nan nan 2.5 2.7 2.8 2.9 0.0 2.5 2.8 2.8 2.8 2.9 2.5 2.5 2.7 2.7 2.6 nan 2.7 2.9 2.8 3.0 2.9 2.9 2.9 3.1 3.5 3.7 nan nan
nan nan nan nan nan nan nan nan nan nan nan nan nan nan nan 5.0 3.6 2.9 2.8 2.6 2.7 2.7 2.6 2.6 2.7 2.5 2.5 2.5 2.6 2.7 2.6 2.8 2.9 2.9 3.0 3.1 3.2 3.2 3.2 3.4 3.6 4.0 3.9 4.0
nan nan nan nan nan nan nan nan nan nan nan nan nan nan 6.7 6.3 5.7 5.1 4.1 3.4 3.7 3.7 3.0 3.0 3.0 2.6 2.5 2.7 2.9 3.5 3.5 3.2 3.6 3.8 3.9 3.9 3.7 4.0 4.2 4.2 4.5 4.5 4.6 4.4
3.0 nan nan nan nan nan nan nan nan nan nan nan 6.2 6.4 6.3 5.6 5.3 4.4 4.3 4.2 3.7 3.5 3.7 4.2 4.2 3.5 3.6 3.9 4.1 3.8 4.0 4.1 3.0 4.4 4.5 4.4 4.4 4.4 4.6 4.6 4.8 4.9 4.6 3.9
nan nan nan 5.0 5.0 6.1 5.9 6.7 6.0 5.9 6.5 6.7 6.0 3.5 3.6 4.4 6.0 5.5 5.1 4.5 4.9 5.0 5.1 4.8 4.6 4.4 4.4 4.4 4.7 4.4 4.3 4.4 4.3 4.6 4.5 4.7 4.9 4.9 5.0 5.2 5.1 5.1 5.1 5.0
nan nan nan nan 5.8 5.9 6.1 6.0 6.1 5.7 4.6 5.2 4.2 4.6 4.6 4.8 6.0 6.4 6.0 5.6 5.3 6.7 6.4 5.8 3.0 4.6 5.5 5.2 4.3 4.3 4.3 4.1 4.5 4.8 4.6 3.1 4.5 5.0 4.8 4.8 5.0 4.7 4.9 5.1
nan nan 5.5 4.7 5.0 5.8 5.9 5.6 6.1 5.7 5.5 5.2 5.0 5.2 6.1 6.0 5.6 5.7 5.8 7.3 7.8 7.2 6.4 5.9 5.6 6.3 6.2 5.6 3.8 4.6 4.3 4.1 4.7 4.5 4.3 4.7 4.0 3.9 4.3 3.1 4.6 4.3 3.9 4.2
5.6 4.7 4.6 5.6 5.9 5.4 5.1 5.5 5.5 6.8 6.3 5.3 5.1 5.4 6.0 6.0 5.7 5.2 5.6 7.4 8.3 7.4 6.9 3.6 5.8 4.9 4.7 4.2 3.9 4.1 3.5 3.6 3.6 4.1 4.2 3.9 3.8 4.0 4.1 3.8 3.9 3.8 4.0 4.1
6.0 5.2 5.1 5.6 6.2 6.6 6.6 6.8 7.0 5.8 5.9 5.5 5.3 5.4 5.6 6.5 5.8 5.9 5.6 8.2 7.5 3.0 4.7 4.6 4.4 3.1 3.1 3.0 3.5 3.2 3.5 3.4 3.6 3.8 4.0 3.8 4.1 4.1 4.3 4.1 4.5 4.2 4.2 4.3
5.3 5.8 5.3 5.4 5.6 6.8 5.5 5.5 5.0 5.0 4.9 4.8 4.9 5.1 5.6 6.4 6.5 5.4 5.5 9.6 4.2 3.1 4.2 3.8 3.0 3.0 3.0 3.4 3.3 3.4 3.4 3.6 3.7 3.9 4.0 4.1 4.1 4.0 4.4 4.5 4.2 4.3 4.2 4.5
5.8 5.8 5.7 5.8 5.1 5.1 6.4 6.2 5.3 5.2 4.2 4.6 4.4 4.2 4.9 4.3 3.8 4.5 4.3 3.0 3.0 3.0 3.3 3.5 3.3 3.0 3.0 3.5 3.6 3.5 3.6 3.6 3.8 3.9 4.1 3.1 3.9 4.1 4.1 4.1 4.8 3.9 4.2 4.3
5.7 6.1 6.3 5.5 5.5 4.4 4.9 4.5 5.0 5.1 5.1 4.4 5.0 5.0 5.0 4.1 3.8 4.1 3.6 3.6 3.1 3.1 3.5 3.1 3.0 3.0 3.7 3.7 3.8 3.9 4.0 4.1 4.1 4.2 4.5 4.4 4.3 4.3 4.1 4.4 4.8 4.2 4.6 4.5
5.6 4.7 4.5 4.6 3.8 3.7 3.7 3.8 4.4 4.4 4.3 4.4 4.3 3.7 3.5 3.7 3.8 3.8 3.8 3.3 3.9 3.1 3.8 3.9 4.0 3.8 3.8 4.0 4.0 4.2 4.2 4.3 4.4 4.5 4.8 4.8 4.8 5.0 5.5 5.3 5.0 4.6 4.4 4.5
4.0 3.5 3.7 3.7 3.8 3.9 4.0 4.0 4.4 4.8 3.6 4.0 4.5 3.9 4.0 4.0 3.9 3.5 3.2 4.0 3.9 4.2 4.4 4.0 4.1 3.3 4.0 4.2 4.5 4.7 4.9 4.7 3.3 5.0 5.2 5.4 5.5 5.0 5.3 5.1 4.8 4.5 4.8 5.5